This is the latest recevied weather packets stored in our database for station/object F1ZRP-13. If no packets are shown the sender has not sent any weather packets the latest 10 day(s).
| Time | Temp. | Humidity | Pressure | Rain* | Wind** | Luminosity | Snow |
|---|---|---|---|---|---|---|---|
| 1778137610 | 10.56° C | 83% | 1015.4 hPa | - | - | - | - |
| 1778136622 | 10° C | 86% | 1015.3 hPa | - | - | - | - |
| 1778135752 | 9.44° C | 87% | 1015.3 hPa | - | - | - | - |
| 1778134588 | 9.44° C | 88% | 1015.2 hPa | - | - | - | - |
| 1778133663 | 8.89° C | 88% | 1015.1 hPa | - | - | - | - |
| 1778132685 | 8.89° C | 88% | 1015 hPa | - | - | - | - |
| 1778131794 | 8.33° C | 89% | 1014.8 hPa | - | - | - | - |
| 1778131111 | 8.33° C | 89% | 1014.8 hPa | - | - | - | - |
| 1778130166 | 7.78° C | 89% | 1014.6 hPa | - | - | - | - |
| 1778129449 | 7.78° C | 90% | 1014.5 hPa | - | - | - | - |
| 1778128428 | 7.78° C | 91% | 1014.3 hPa | - | - | - | - |
| 1778127559 | 7.22° C | 91% | 1014.1 hPa | - | - | - | - |
| 1778126643 | 7.78° C | 91% | 1014 hPa | - | - | - | - |
| 1778125566 | 7.78° C | 90% | 1014 hPa | - | - | - | - |
| 1778124754 | 7.78° C | 90% | 1013.9 hPa | - | - | - | - |
| 1778123724 | 7.78° C | 90% | 1013.8 hPa | - | - | - | - |
| 1778122644 | 7.78° C | 90% | 1013.6 hPa | - | - | - | - |
| 1778121607 | 7.78° C | 90% | 1013.7 hPa | - | - | - | - |
| 1778120624 | 7.78° C | 90% | 1013.6 hPa | - | - | - | - |
| 1778119521 | 8.33° C | 89% | 1013.5 hPa | - | - | - | - |
| 1778118585 | 8.33° C | 89% | 1013.3 hPa | - | - | - | - |
| 1778117569 | 8.89° C | 87% | 1013.3 hPa | - | - | - | - |
| 1778116849 | 8.89° C | 86% | 1013.3 hPa | - | - | - | - |
| 1778116229 | 8.89° C | 85% | 1013.2 hPa | - | - | - | - |
| 1778115202 | 9.44° C | 85% | 1013.2 hPa | - | - | - | - |
* Rain since midnight (hover to see other rain measurements)
** Current wind speed in m/s (hover to see current wind gust speed)